Needles, CA

2:44 PM PDT on August 24, 2016 (GMT -0700)
Needles

Weather History for KEED - December, 2012

Change the Weather History Date:

Saturday, December 1, 2012

  Actual Average Record
Temperature  
Mean Temperature 66 °F 55 °F  
Max Temperature 78 °F 66 °F 80 °F (1949)
Min Temperature 55 °F 45 °F 27 °F (1908)
Degree Days  
Heating Degree Days 0    
Cooling Degree Days 2    
Growing Degree Days 16 (Base 50)    
Moisture  
Dew Point 46 °F    
Average Humidity 48    
Maximum Humidity 75    
Minimum Humidity 25    
Precipitation  
Precipitation 0.00 in 0.01 in 0.75 in (1889)
Month to date precipitation 0.01  
Year to date precipitation 4.12  
Sea Level Pressure  
Sea Level Pressure 29.97 in    
Wind  
Wind Speed 6 mph (WSW)    
Max Wind Speed 12 mph    
Max Gust Speed -    
Visibility 10 miles    
Events      
T = Trace of Precipitation, MM = Missing Value Source: NWS Daily Summary

Daily Weather History Graph

Daily Weather History Graph

Search for Another Location

Airport or City:

Trip Planner

Search our weather history database for the weather conditions in past years. The results will help you decide how hot, cold, wet, or windy it might be!

Date:

Astronomy

Dec. 01, 2012 Rise Set
Actual Time 6:28 AM PST 4:27 PM PST
Civil Twilight 6:00 AM PST 4:54 PM PST
Nautical Twilight 5:29 AM PST 5:26 PM PST
Astronomical Twilight 4:58 AM PST 5:56 PM PST
Moon 7:19 PM PST (12/1) 8:45 AM PST (12/1)
Length of Visible Light 10h 54m
Length of Day
9h 59m
Waning Gibbous, 91% of the Moon is Illuminated
Dec 1
Waning Gibbous
Dec 6
Last Quarter
Dec 13
New
Dec 19
First Quarter
Dec 28
Full

Hourly Weather History & Observations

Time (PST) Temp. Dew Point Humidity Pressure Visibility Wind Dir Wind Speed Gust Speed Precip Events Conditions
12:56 AM 62.1 °F 50.0 °F 65% 29.98 in 10.0 mi SSW 5.8 mph - N/A   Clear
1:56 AM 59.0 °F 48.9 °F 69% 29.99 in 10.0 mi West 6.9 mph - N/A   Clear
2:56 AM 57.9 °F 48.9 °F 72% 29.99 in 10.0 mi West 6.9 mph - N/A   Clear
4:56 AM 55.9 °F 48.0 °F 75% 30.00 in 10.0 mi Calm Calm - N/A   Clear
6:56 AM 59.0 °F 48.9 °F 69% 30.03 in 10.0 mi NNW 5.8 mph - N/A   Clear
9:56 AM 66.9 °F 50.0 °F 54% 30.05 in 10.0 mi NE 5.8 mph - N/A   Clear
10:56 AM 68.0 °F 50.0 °F 52% 30.03 in 10.0 mi Calm Calm - N/A   Clear
11:56 AM 72.0 °F 50.0 °F 46% 29.99 in 10.0 mi East 5.8 mph - N/A   Clear
12:56 PM 75.9 °F 48.0 °F 37% 29.96 in 10.0 mi Variable 3.5 mph - N/A   Clear
1:56 PM 78.1 °F 41.0 °F 27% 29.94 in 10.0 mi West 11.5 mph - N/A   Clear
2:56 PM 78.1 °F 39.0 °F 25% 29.93 in 10.0 mi WSW 8.1 mph - N/A   Clear
3:56 PM 75.9 °F 41.0 °F 29% 29.93 in 10.0 mi SSW 6.9 mph - N/A   Clear
4:56 PM 73.0 °F 39.9 °F 30% 29.93 in 10.0 mi SW 6.9 mph - N/A   Clear
5:56 PM 70.0 °F 41.0 °F 35% 29.94 in 10.0 mi WSW 9.2 mph - N/A   Clear
6:56 PM 69.1 °F 42.1 °F 38% 29.95 in 10.0 mi WSW 8.1 mph - N/A   Clear
7:56 PM 70.0 °F 46.0 °F 42% 29.96 in 10.0 mi WSW 11.5 mph - N/A   Clear
8:56 PM 66.0 °F 45.0 °F 47% 29.96 in 10.0 mi NE 3.5 mph - N/A   Clear
10:56 PM 63.0 °F 44.1 °F 50% 29.97 in 10.0 mi SSW 4.6 mph - N/A   Clear
11:56 PM 59.0 °F 44.1 °F 58% 29.97 in 10.0 mi WNW 4.6 mph - N/A   Clear